FW0683 Weather Reports


time (UTC)temp
C
wind
direction
speed
KPH
gust
KPH
rain 1hr
cm
rain 24hr
cm
rain mn
cm
humidity
%
barometer
mb
20260503010042 7 113 0.0 0.0 0.00 0.48 0.48 93 1015.1
20260503004541 7 113 0.0 0.0 0.00 0.48 0.48 93 1014.9
20260503003041 7 113 0.0 0.0 0.00 0.48 0.48 93 1014.9
20260503001541 7 113 0.0 0.0 0.00 0.48 0.48 92 1014.8
20260503000057 8 113 0.0 0.0 0.00 0.48 0.48 92 1014.7
20260502234540 8 113 0.0 0.0 0.03 0.48 0.48 92 1014.6
20260502233039 8 113 0.0 0.0 0.05 0.48 0.48 91 1014.5
20260502231549 8 116 0.0 0.0 0.15 0.48 0.48 91 1014.3
20260502230038 8 116 0.0 0.0 0.20 0.48 0.48 91 1014.3
20260502224538 8 116 0.0 0.0 0.18 0.46 0.46 90 1014.5
20260502223038 8 116 0.0 0.0 0.15 0.43 0.43 88 1014.6
20260502221538 9 116 0.0 0.0 0.05 0.33 0.33 86 1014.6
20260502220046 9 116 0.0 0.0 0.00 0.28 0.28 83 1014.2
20260502214536 10 100 0.0 0.0 0.00 0.28 0.28 82 1014.3
20260502213035 10 348 0.0 0.0 0.00 0.28 0.28 82 1014.2
20260502211535 10 17 0.0 0.0 0.00 0.28 0.28 81 1014.4
20260502210035 10 79 0.0 0.0 0.00 0.28 0.28 81 1014.3
20260502204534 10 283 0.0 0.0 0.00 0.28 0.28 81 1014.3
20260502203033 10 319 0.0 0.0 0.00 0.28 0.28 81 1014.2
20260502201535 10 356 0.0 0.0 0.00 0.28 0.28 79 1014.2
20260502200033 11 310 0.0 0.0 0.00 0.28 0.28 76 1014.3
20260502194532 11 323 0.0 0.0 0.00 0.28 0.28 73 1014.3
20260502193032 11 230 0.0 1.6 0.00 0.28 0.28 71 1014.3
20260502191533 11 110 0.0 0.0 0.00 0.28 0.28 70 1014.4
20260502190031 11 112 0.0 0.0 0.00 0.28 0.28 72 1014.5
20260502184529 12 62 0.0 0.0 0.00 0.28 0.28 72 1014.6
20260502183029 12 115 0.0 0.0 0.00 0.28 0.28 71 1014.7
20260502181529 12 136 0.0 1.6 0.00 0.28 0.28 69 1014.6
20260502163027 11 276 0.0 0.0 0.00 0.28 0.28 78 1015.6
20260502161517 11 41 0.0 0.0 0.00 0.28 0.28 80 1015.6
20260502151507 9 357 0.0 0.0 0.00 0.28 0.28 89 1015.9
20260502130107 6 316 0.0 0.0 0.13 0.18 0.18 92 1016.7
20260502123112 5 316 0.0 0.0 0.15 0.18 0.18 92 1016.7
20260502121544 5 313 0.0 0.0 0.10 0.13 0.13 91 1016.9
20260502114542 5 330 0.0 0.0 0.00 0.03 0.03 90 1015.9
20260502113038 5 328 0.0 0.0 0.03 0.03 0.03 91 1015.6
20260502111538 5 328 0.0 0.0 0.03 0.03 0.03 90 1015.6
20260502110046 5 328 0.0 0.0 0.03 0.03 0.03 90 1015.7
20260502104536 5 357 0.0 0.0 0.03 0.03 0.03 89 1015.7
20260502103035 5 19 0.0 0.0 0.00 0.00 0.00 87 1016.0
20260502101534 5 19 0.0 0.0 0.00 0.00 0.00 86 1015.5
20260502091530 5 288 0.0 0.0 0.00 0.00 0.00 79 1015.1
20260502071517 3 15 0.0 0.0 0.00 0.00 0.00 81 1015.9
20260502070017 3 335 0.0 0.0 0.00 0.00 0.00 83 1016.0
20260502064517 3 40 0.0 0.0 0.00 0.00 0.00 85 1015.9
20260502063015 2 40 0.0 0.0 0.00 0.00 0.00 85 1016.0
20260502061514 2 40 0.0 0.0 0.00 0.00 0.00 85 1016.0
20260502060013 2 44 0.0 0.0 0.00 0.00 0.00 82 1015.8
20260502054520 3 44 0.0 0.0 0.00 0.00 0.00 81 1016.0
20260502053008 3 44 0.0 0.0 0.00 0.00 0.00 78 1015.9
20260502051513 3 44 0.0 0.0 0.00 0.00 0.00 78 1016.1
20260502050022 4 44 0.0 0.0 0.00 0.00 0.00 77 1016.1
20260502044504 4 44 0.0 0.0 0.00 0.00 0.00 78 1016.0
20260502043002 3 44 0.0 0.0 0.00 0.00 0.00 78 1016.0
20260502041600 3 44 0.0 0.0 0.00 0.00 0.00 79 1015.7
20260502040107 3 44 0.0 0.0 0.00 0.00 0.00 78 1015.5
20260502034603 3 44 0.0 0.0 0.00 0.00 0.00 76 1015.5
20260502033100 3 44 0.0 0.0 0.00 0.00 0.00 74 1015.5
20260502031553 3 44 0.0 0.0 0.00 0.00 0.00 74 1015.5
20260502030051 3 44 0.0 0.0 0.00 0.00 0.00 71 1015.3
20260502024607 4 44 0.0 0.0 0.00 0.00 0.00 68 1015.2
20260502023047 5 44 0.0 0.0 0.00 0.00 0.00 66 1015.1
20260502021548 5 44 0.0 0.0 0.00 0.00 0.00 63 1015.0
20260502020046 5 44 0.0 0.0 0.00 0.00 0.00 60 1015.0
20260502014545 5 44 0.0 0.0 0.00 0.00 0.00 60 1015.1
20260502013045 6 44 0.0 0.0 0.00 0.00 0.00 58 1015.1
20260502011544 6 44 0.0 0.0 0.00 0.00 0.00 57 1015.0